Torna al catalogo

STARLINK-2609

AttivoComunicazioniVLEO
NORAD 48373·PAYLOAD·🇺🇸 United States

Lanciato May 4, 2021 da Cape Canaveral Space Force Station

Loading…

Prossimi Passaggi (prossime 24 ore)

TLE

AggiornatoSource: CelesTrak SupGP

Epoca: Sep 14, 2026, 14:16 UTC

1 48373C 21038W   26257.59493056  .00024826  00000+0  79866-3 0  2579
2 48373  53.1606 186.3588 0001313  87.9035 273.8465 15.31676486    10

Traccia STARLINK-2609 in tempo reale con AllMySat

Download on the App Store